User: anonymous   Login
Location: Melbourne
(37.8666°S, 145.1333°E)
Time: 15:35:54
(UTC+10:00)
Language:

ATLAS CENTAUR R/B - Orbit

View from above orbital plane
View from above orbital plane
View from above satellite
View from above satellite

Ground track
Ground track

The orbit data is extracted from the following two-line orbital elements,

1 28385U 04034B   15112.05866599 0.00045000  00000-0  13748-2 0    02
2 28385  57.3285 163.9702 3971754  86.0521 317.0247  7.54932090    07
Epoch (UTC): 22 April 2015 01:24:28
Eccentricity: 0.3971754
inclination: 57.3285°
perigee height: 239 km
apogee height: 8958 km
right ascension of ascending node: 163.9702°
argument of perigee: 86.0521°
revolutions per day: 7.54932090
mean anomaly at epoch: 317.0247°
orbit number at epoch: 0

The dashed part of the orbit path shows where the satellite is in the earth's shadow,  

DLR